Location: Brompton
(51.4000°N, 0.5333°E)
Time: 10:03:00
(UTC+00:00)

Cosmos 1898 Rocket - Pass Details

Date: 02 October 2021
Orbit: 752 x 784 km, 74.0° (Epoch: 17 October)

Event Time Altitude Azimuth Distance (km) Brightness Sun altitude
Rises 02:17:29 0° 339° (NNW) 3,268 7.0 -32.9°
Reaches altitude 10° 02:21:50 10° 13° (NNE) 2,344 6.6 -32.4°
Maximum altitude 02:23:32 11° 31° (NNE) 2,247 6.7 -32.2°
Drops below altitude 10° 02:25:14 10° 50° (NE) 2,346 6.9 -32.0°
Sets 02:29:35 0° 84° (E) 3,275 7.5 -31.5°
